Powrót do katalogu

METEOR 2-11 DEB

AktywnyPO
NORAD 40707·DEBRIS·🇷🇺 Russia

Wystrzelony Jul 5, 1984 z Plesetsk Cosmodrome

Loading…

Następne Przeloty (najbliższe 24 godziny)

TLE

ŚwieżeSource: Space-Track

Epoka: Sep 13, 2026, 19:40 UTC

1 40707U 84072J   26256.81957817  .00001116  00000-0  77630-3 0  9991
2 40707  82.5199 293.9071 0013171 136.9394 223.2807 13.97944708116568

Śledź METEOR 2-11 DEB w czasie rzeczywistym z AllMySat

Download on the App Store